When you browse on this site, cookies collect data to enhance your experience and personalize the content and advertising you see.
Visit our Privacy Policy to learn more. By continuing to use the site, you agree to this use of cookies and data.
  • In United Kingdom
  • List of Countries
  • For 7 days
  • Water Temperature
  • Weather Map
  • Weather Widgets
  • user-avatar
    Login

    Hourly Weather Bijeljina

    Today, 17 October, Thursday

    Time Temperature Precipitation Wind Pressure Humidity
    00:00 +16°C° 0 mm 2 mps 755 mmHg 74%
    01:00 +15°C° 0 mm 2 mps 755 mmHg 81%
    02:00 +15°C° 0 mm 2 mps 755 mmHg 83%
    03:00 +14°C° 0 mm 1 mps 755 mmHg 86%
    04:00 +14°C° 0 mm 1 mps 755 mmHg 88%
    05:00 +14°C° 0 mm 1 mps 755 mmHg 87%
    06:00 +15°C° 0 mm 1 mps 755 mmHg 85%
    07:00 +15°C° 0 mm 1 mps 755 mmHg 84%
    08:00 +18°C° 0 mm 1 mps 755 mmHg 75%
    09:00 +20°C° 0 mm 1 mps 756 mmHg 66%
    10:00 +23°C° 0 mm 1 mps 756 mmHg 57%
    11:00 +24°C° 0 mm 1 mps 755 mmHg 53%
    12:00 +25°C° 0 mm 1 mps 755 mmHg 49%
    13:00 +26°C° 0 mm 1 mps 755 mmHg 45%
    14:00 +25°C° 0 mm 1 mps 754 mmHg 47%
    15:00 +25°C° 0 mm 1 mps 754 mmHg 49%
    16:00 +24°C° 0 mm 2 mps 754 mmHg 51%
    17:00 +23°C° 0 mm 1 mps 754 mmHg 57%
    18:00 +21°C° 0 mm 1 mps 755 mmHg 64%
    19:00 +17°C° 0 mm 0 mps 755 mmHg 70%
    20:00 +18°C° 0 mm 1 mps 755 mmHg 72%
    21:00 +18°C° 0 mm 1 mps 755 mmHg 74%
    22:00 +18°C° 0 mm 1 mps 755 mmHg 76%
    23:00 +16°C° 0 mm 1 mps 755 mmHg 78%

    Tomorrow, 18 October, Friday

    Time Temperature Precipitation Wind Pressure Humidity
    00:00 +16°C° 0 mm 1 mps 755 mmHg 80%
    01:00 +15°C° 0 mm 1 mps 755 mmHg 82%
    02:00 +15°C° 0 mm 1 mps 755 mmHg 83%
    03:00 +15°C° 0 mm 1 mps 755 mmHg 84%
    04:00 +15°C° 0 mm 1 mps 755 mmHg 85%
    05:00 +15°C° 0 mm 1 mps 755 mmHg 83%
    06:00 +15°C° 0 mm 1 mps 755 mmHg 82%
    07:00 +15°C° 0 mm 1 mps 755 mmHg 80%
    08:00 +19°C° 0 mm 1 mps 755 mmHg 71%
    09:00 +19°C° 0 mm 0 mps 755 mmHg 63%
    10:00 +21°C° 0 mm 0 mps 755 mmHg 54%
    11:00 +24°C° 0 mm 1 mps 754 mmHg 50%
    12:00 +25°C° 0 mm 1 mps 754 mmHg 46%
    13:00 +26°C° 0 mm 1 mps 754 mmHg 43%
    14:00 +26°C° 0 mm 1 mps 753 mmHg 45%
    15:00 +25°C° 0 mm 1 mps 753 mmHg 47%
    16:00 +25°C° 0 mm 1 mps 753 mmHg 49%
    17:00 +23°C° 0 mm 1 mps 753 mmHg 55%
    18:00 +21°C° 0 mm 1 mps 753 mmHg 61%
    19:00 +17°C° 0 mm 0 mps 753 mmHg 66%
    20:00 +17°C° 0 mm 0 mps 754 mmHg 68%
    21:00 +16°C° 0 mm 0 mps 754 mmHg 69%
    22:00 +18°C° 0 mm 1 mps 755 mmHg 70%
    23:00 +16°C° 0 mm 1 mps 755 mmHg 72%

    Day after tomorrow, 19 October, Saturday

    Time Temperature Precipitation Wind Pressure Humidity
    00:00 +16°C° 0 mm 1 mps 754 mmHg 74%
    01:00 +16°C° 0 mm 1 mps 754 mmHg 75%
    02:00 +15°C° 0 mm 1 mps 754 mmHg 76%
    03:00 +15°C° 0 mm 1 mps 755 mmHg 77%
    04:00 +14°C° 0 mm 1 mps 755 mmHg 77%
    05:00 +15°C° 0 mm 1 mps 755 mmHg 76%
    06:00 +15°C° 0 mm 1 mps 755 mmHg 74%
    07:00 +15°C° 0 mm 1 mps 755 mmHg 72%
    08:00 +19°C° 0 mm 1 mps 755 mmHg 64%
    09:00 +19°C° 0 mm 0 mps 755 mmHg 55%
    10:00 +22°C° 0 mm 0 mps 755 mmHg 47%
    11:00 +23°C° 0 mm 0 mps 754 mmHg 43%
    12:00 +24°C° 0 mm 0 mps 754 mmHg 39%
    13:00 +27°C° 0 mm 1 mps 754 mmHg 35%
    14:00 +27°C° 0 mm 1 mps 754 mmHg 38%
    15:00 +26°C° 0 mm 1 mps 753 mmHg 40%
    16:00 +25°C° 0 mm 1 mps 753 mmHg 42%
    17:00 +23°C° 0 mm 1 mps 754 mmHg 47%
    18:00 +22°C° 0 mm 1 mps 754 mmHg 52%
    19:00 +20°C° 0 mm 1 mps 754 mmHg 57%
    20:00 +19°C° 0 mm 1 mps 754 mmHg 58%
    21:00 +19°C° 0 mm 1 mps 755 mmHg 60%
    22:00 +18°C° 0 mm 1 mps 755 mmHg 61%
    23:00 +18°C° 0 mm 1 mps 755 mmHg 61%

    20 October, Sunday

    Time Temperature Precipitation Wind Pressure Humidity
    00:00 +16°C° 0 mm 1 mps 755 mmHg 61%
    01:00 +16°C° 0 mm 1 mps 754 mmHg 61%
    02:00 +16°C° 0 mm 1 mps 755 mmHg 62%
    03:00 +15°C° 0 mm 1 mps 755 mmHg 63%
    04:00 +15°C° 0 mm 1 mps 755 mmHg 64%
    05:00 +15°C° 0 mm 1 mps 755 mmHg 64%
    06:00 +15°C° 0 mm 1 mps 755 mmHg 63%
    07:00 +15°C° 0 mm 1 mps 755 mmHg 63%
    08:00 +19°C° 0 mm 1 mps 755 mmHg 55%
    09:00 +22°C° 0 mm 1 mps 755 mmHg 46%
    10:00 +23°C° 0 mm 0 mps 755 mmHg 38%
    11:00 +24°C° 0 mm 0 mps 755 mmHg 34%
    12:00 +25°C° 0 mm 0 mps 755 mmHg 30%
    13:00 +26°C° 0 mm 0 mps 755 mmHg 26%
    14:00 +27°C° 0 mm 1 mps 755 mmHg 29%
    15:00 +26°C° 0 mm 1 mps 755 mmHg 32%
    16:00 +25°C° 0 mm 1 mps 755 mmHg 34%
    17:00 +24°C° 0 mm 1 mps 755 mmHg 38%
    18:00 +22°C° 0 mm 1 mps 755 mmHg 42%
    19:00 +20°C° 0 mm 1 mps 756 mmHg 46%
    20:00 +19°C° 0 mm 1 mps 756 mmHg 47%
    21:00 +19°C° 0 mm 1 mps 756 mmHg 49%
    22:00 +18°C° 0 mm 1 mps 757 mmHg 50%
    23:00 +18°C° 0 mm 1 mps 757 mmHg 51%

    21 October, Monday

    Time Temperature Precipitation Wind Pressure Humidity
    00:00 +16°C° 0 mm 1 mps 757 mmHg 52%
    01:00 +16°C° 0 mm 1 mps 757 mmHg 52%
    02:00 +16°C° 0 mm 1 mps 757 mmHg 54%
    03:00 +15°C° 0 mm 1 mps 757 mmHg 55%
    04:00 +15°C° 0 mm 1 mps 757 mmHg 56%
    05:00 +15°C° 0 mm 1 mps 757 mmHg 56%
    06:00 +15°C° 0 mm 1 mps 758 mmHg 56%
    07:00 +15°C° 0 mm 1 mps 758 mmHg 57%
    08:00 +19°C° 0 mm 1 mps 758 mmHg 50%
    09:00 +21°C° 0 mm 1 mps 758 mmHg 43%
    10:00 +22°C° 0 mm 0 mps 758 mmHg 36%
    11:00 +25°C° 0 mm 1 mps 758 mmHg 34%
    12:00 +27°C° 0 mm 1 mps 758 mmHg 31%
    13:00 +28°C° 0 mm 1 mps 757 mmHg 28%
    14:00 +27°C° 0 mm 1 mps 757 mmHg 31%
    15:00 +26°C° 0 mm 1 mps 757 mmHg 33%
    16:00 +25°C° 0 mm 1 mps 757 mmHg 36%
    17:00 +23°C° 0 mm 1 mps 757 mmHg 39%
    18:00 +22°C° 0 mm 1 mps 757 mmHg 43%
    19:00 +20°C° 0 mm 1 mps 757 mmHg 46%
    20:00 +19°C° 0 mm 1 mps 758 mmHg 48%
    21:00 +19°C° 0 mm 1 mps 758 mmHg 49%
    22:00 +18°C° 0 mm 1 mps 758 mmHg 50%
    23:00 +18°C° 0 mm 1 mps 758 mmHg 51%

    22 October, Tuesday

    Time Temperature Precipitation Wind Pressure Humidity
    00:00 +18°C° 0 mm 1 mps 758 mmHg 52%
    01:00 +16°C° 0 mm 1 mps 758 mmHg 53%
    02:00 +16°C° 0 mm 1 mps 757 mmHg 54%
    03:00 +16°C° 0 mm 1 mps 757 mmHg 55%
    04:00 +15°C° 0 mm 1 mps 757 mmHg 56%
    05:00 +15°C° 0 mm 1 mps 757 mmHg 55%
    06:00 +16°C° 0 mm 1 mps 757 mmHg 55%
    07:00 +16°C° 0 mm 1 mps 757 mmHg 54%
    08:00 +20°C° 0 mm 1 mps 757 mmHg 47%
    09:00 +23°C° 0 mm 1 mps 757 mmHg 40%
    10:00 +25°C° 0 mm 1 mps 757 mmHg 33%
    11:00 +27°C° 0 mm 1 mps 756 mmHg 31%
    12:00 +28°C° 0 mm 1 mps 756 mmHg 28%
    13:00 +29°C° 0 mm 2 mps 756 mmHg 26%
    14:00 +28°C° 0 mm 2 mps 756 mmHg 29%
    15:00 +27°C° 0 mm 2 mps 755 mmHg 32%
    16:00 +26°C° 0 mm 1 mps 755 mmHg 34%
    17:00 +24°C° 0 mm 1 mps 755 mmHg 39%
    18:00 +22°C° 0 mm 1 mps 755 mmHg 43%
    19:00 +20°C° 0 mm 1 mps 755 mmHg 47%
    20:00 +20°C° 0 mm 1 mps 755 mmHg 49%
    21:00 +19°C° 0 mm 1 mps 755 mmHg 51%
    22:00 +18°C° 0 mm 1 mps 755 mmHg 53%
    23:00 +18°C° 0 mm 1 mps 755 mmHg 54%
    Show more